Regional Weather Roundup
Issued by NWS

Home | Current Version | Previous Version | Graphics & Text | Print | Product List | Glossary On
Versions: 1 2 3 4 5 6 7 8 9 10 11 12 13 14 15 16 17 18 19 20 21 22 23 24 25 26 27 28 29 30 31 32 33 34 35 36 37 38 39 40 41 42 43 44 45 46 47 48 49 50
000
ASUS43 KIND 050209
RWRIN

WEATHER ROUNDUP FOR INDIANA
NATIONAL WEATHER SERVICE INDIANAPOLIS IN
1000 PM EDT WED MAY 04 2016

NOTE: "FAIR" INDICATES FEW OR NO CLOUDS BELOW 12,000 FEET WITH NO
SIGNIFICANT WEATHER AND/OR OBSTRUCTIONS TO VISIBILITY.

* - STATION DOES NOT REPORT WEATHER SUCH AS PRECIPITATION OR FOG.

+ - STATION NOT QUALITY CONTROLLED BY THE NATIONAL WEATHER SERVICE.
    USE DATA WITH CAUTION...ESPECIALLY DEWPOINT AND RELATIVE
    HUMIDITY OBSERVATIONS.

INZ001>003-010>013-019-020-050300-
NORTHWEST INDIANA

CITY           SKY/WX    TMP DP  RH WIND       PRES   REMARKS
GARY /AIRPORT/ MOCLDY    45  41  87 N16G32    29.86R
KNOX *+        CLOUDY    39  34  81 NW21      29.79F
LA PORTE +     LGT RAIN  42  42 100 N17       29.80R
MICHIGAN CITY+ LGT RAIN  41  37  87 N21G31    29.82S
MONTICELLO +   CLOUDY    43  35  72 NW15G21   29.81R
RENSSELAER +   CLOUDY    43  37  81 NW8G16    29.83S
VALPARAISO     LGT RAIN  40  37  89 N14G24    29.82R

$$

LMZ046-743>745-050300-
SOUTHERN LAKE MICHIGAN

STATION/POSITION TIME  TEMP    WIND        PRES    WAVE
                       AIR SEA DIR/SP/G            HT
                 (UTC) (F)     (DEG/KT/KT) (MB)    (FT)
BURNS HARBOR     0200   43      10/ 21/ 25 1010.8S
MICHIGAN CITY    0100   42     340/ 28/ 30   N/A

$$

INZ004-005-014>016-021>024-050300-
NORTH CENTRAL INDIANA

CITY           SKY/WX    TMP DP  RH WIND       PRES   REMARKS
GOSHEN         CLOUDY    39  36  89 NW15G21   29.72F
LOGANSPORT +   LGT RAIN  41  37  87 NW10G20   29.80F
PERU/GRISSOM   LGT RAIN  40  39  95 NW17      29.75F
ROCHESTER +    LGT RAIN  43  41  93 NW15G21   29.76S
SOUTH BEND     RAIN      39  37  92 NW24G30   29.76S FOG
WARSAW +       LGT RAIN  37  36  93 NW13G21   29.74S

$$

INZ006>009-017-018-025>027-050300-
NORTHEAST INDIANA

CITY           SKY/WX    TMP DP  RH WIND       PRES   REMARKS
ANGOLA *+      PTCLDY    37  36  93 W6        29.69S
AUBURN +       CLOUDY    39  36  87 W9        29.72R
FORT WAYNE     CLOUDY    40  35  83 NW10      29.73S
HUNTINGTON +   LGT RAIN N/A N/A N/A NW8G17    29.74S

$$

INZ028-029-035-036-043>045-051>053-050300-
WEST CENTRAL INDIANA

CITY           SKY/WX    TMP DP  RH WIND       PRES   REMARKS
CRAWFORDSVL +  CLOUDY    43  40  88 NW5       29.82F
GREENCASTLE +  CLOUDY    46  43  87 N12       29.83R
LAFAYETTE      CLOUDY    45  37  73 NW7       29.82S
TERRE HAUTE    CLOUDY    51  38  60 N13       29.83R

$$

INZ030>032-037>040-046>048-054>057-064-065-050300-
CENTRAL INDIANA

CITY           SKY/WX    TMP DP  RH WIND       PRES   REMARKS
CP ATTERBURY + CLOUDY    46  39  76 NW7       29.81R
COLUMBUS       MOCLDY    46  41  81 NW9       29.80R
FISHERS *+     CLOUDY    41  39  93 NW7       29.79F
FRANKFORT +      N/A     45  31  57 NW13      29.82S
GREENWOOD *+   CLOUDY    45  37  76 NW10G17   29.81R
INDIANAPOLIS   CLOUDY    45  38  76 NW12      29.80R
-EAGLE CREEK   CLOUDY    46  38  73 NW9       29.79F
KOKOMO *+      CLOUDY    41  36  81 NW24G31   29.77F
MARION +       CLOUDY    40  37  88 NW23G29   29.76S
SHELBYVILLE    CLOUDY    48  37  65 NW20      29.79R
ZIONSVILLE +   LGT RAIN  43  38  82 NW9       29.80S

$$

INZ033-034-041-042-049-050-058-059-050300-
EAST CENTRAL INDIANA

CITY           SKY/WX    TMP DP  RH WIND       PRES   REMARKS
MUNCIE         CLOUDY    43  37  79 NW18G24   29.75S

$$

INZ060-061-067>069-081>083-085>088-050300-
SOUTHWEST INDIANA

CITY           SKY/WX    TMP DP  RH WIND       PRES   REMARKS
EVANSVILLE     CLOUDY    55  40  56 N9        29.85R
HUNTINGBURG *+ CLEAR     52  37  58 N13G18    29.83R
WASHINGTON +   CLOUDY    52  41  67 NW8       29.84R

$$

INZ062-063-066-070>080-084-089>092-050300-
SOUTH CENTRAL AND SOUTHEAST INDIANA

CITY           SKY/WX    TMP DP  RH WIND       PRES   REMARKS
BEDFORD +      MOCLDY    50  46  87 NW5       29.81R
BLOOMINGTON    CLOUDY    48  41  76 VRB3      29.82R
MADISON *+     MOCLDY    50  36  57 NW8       29.80R
NORTH VERNON + PTCLDY    46  43  87 CALM      29.79R
SEYMOUR +      CLOUDY    52  39  62 N10       29.80R

$$





USA.gov is the U.S. government's official web portal to all federal, state and local government web resources and services.